Regional Weather Roundup
Issued by NWS

Home | Current Version | Previous Version | Graphics & Text | Print | Product List | Glossary On
Versions: 1 2 3 4 5 6 7 8 9 10 11 12 13 14 15 16 17 18 19 20 21 22 23 24 25 26 27 28 29 30 31 32 33 34 35 36 37 38 39 40 41 42 43 44 45 46 47 48 49 50
000
ASUS43 KDMX 271007
RWRIA

WEATHER ROUNDUP FOR IOWA
NATIONAL WEATHER SERVICE DES MOINES IA
500 AM CDT FRI MAR 27 2015

NOTE: "FAIR" INDICATES FEW OR NO CLOUDS BELOW 12,000 FEET WITH NO
SIGNIFICANT WEATHER AND/OR OBSTRUCTIONS TO VISIBILITY.

* - THESE STATIONS ARE NOT NWS STATIONS...THUS NOT UNDER NWS
QUALITY CONTROL.  THEY ALSO DO NOT REPORT WEATHER SUCH
AS PRECIPITATION OR FOG.

IAZ001>003-012>014-020>022-031>034-043>046-271100-
   NORTHWEST IOWA

CITY           SKY/WX    TMP DP  RH WIND       PRES   REMARKS
CARROLL *      PTCLDY    21  18  86 N9        30.21S WCI  11
CHEROKEE *     CLEAR     21  16  79 N6        30.23F WCI  14
DENISON *      CLEAR     21  18  86 N7        30.21S WCI  13
LE MARS *      CLEAR     19  14  79 CALM      30.26S
ORANGE CITY *  CLEAR     19  12  73 N5        30.23S WCI  13
SHELDON *      CLEAR     16  12  86 N6        30.23S WCI   7
SIOUX CITY     CLEAR     21  13  71 N8        30.26F WCI  11
SPENCER        CLEAR     20  14  77 N12       30.22F WCI   8
STORM LAKE *   CLEAR     19  14  79 N12       30.22S WCI   7
$$

IAZ055>058-069>071-079>083-090>094-271100-
   SOUTHWEST IOWA

CITY           SKY/WX    TMP DP  RH WIND       PRES   REMARKS
ATLANTIC *     CLEAR     21  18  86 N8        30.22S WCI  12
AUDUBON *      CLEAR     21  18  86 NW6       30.21S WCI  14
CLARINDA *     CLEAR     28  21  74 N10       30.23S WCI  19
COUNCIL BLFS * CLEAR     25  19  80 N7        30.24R WCI  17
CRESTON *      PTCLDY    25  21  86 N12       30.18S WCI  14
HARLAN  *      CLEAR     21  21 100 N7        30.26S WCI  13
LAMONI         PTCLDY    26  19  74 N7        30.17S WCI  18
RED OAK *      CLEAR     25  19  80 N9        30.23S WCI  15
SHENANDOAH *   CLEAR     27  21  80 N8        30.24S WCI  18
$$

IAZ047>049-059>061-072>074-084-271100-
   CENTRAL IOWA

CITY           SKY/WX    TMP DP  RH WIND       PRES   REMARKS
AMES           CLEAR     25  17  72 N10       30.20S WCI  15
ANKENY *       MOCLDY    28  18  64 N9        30.20R WCI  20
CHARITON *     CLOUDY    28  19  69 N8        30.17S WCI  20
DES MOINES     MOCLDY    30  14  51 N9        30.20S WCI  22
GRINNELL*      PTCLDY    25  21  86 N9        30.17S WCI  15
KNOXVILLE *    CLOUDY    28  18  64 N8        30.16S WCI  20
MARSHALLTOWN   CLEAR     24  18  77 N10       30.18R WCI  14
PELLA *        PTCLDY    27  21  80 NW6       30.19R WCI  20
PERRY *          N/A     25  19  80 N9        30.21S WCI  15
$$

IAZ004>006-015-016-023>025-035-036-271100-
   NORTH CENTRAL IOWA

CITY           SKY/WX    TMP DP  RH WIND       PRES   REMARKS
ALGONA *       CLEAR     21  19  93 N7        30.22S WCI  13
CLARION *      CLEAR     23  21  93 N8        30.20S WCI  14
ESTHERVILLE    CLEAR     19  13  77 N9        30.21F WCI   8
FORT DODGE *   CLEAR     23  16  74 N6        30.21F WCI  16
MASON CITY     CLEAR     18  14  84 N7        30.21S WCI   9
FOREST CITY *  CLEAR     19  18  93 N6        30.20F WCI  11
IOWA FALLS *     N/A     25  19  80 N8        30.20R WCI  16
$$

IAZ007>011-017>019-026>030-037>042-050>054-066-271100-
   NORTHEAST IOWA

CITY           SKY/WX    TMP DP  RH WIND       PRES   REMARKS
CEDAR RAPIDS   CLOUDY    27  21  78 N9        30.14R WCI  18
CHARLES CITY * CLEAR     21  14  73 N7        30.20R WCI  13
CLINTON *      CLOUDY    28  16  59 NE14      30.16R WCI  17
DECORAH *      CLEAR     21   7  53 NE5       30.18R WCI  15
DUBUQUE        CLEAR     23  11  60 N10       30.14R WCI  12
MONTICELLO *   CLOUDY    28  18  64 NE9G17    30.15R WCI  20
OELWEIN *      CLEAR     23  18  80 N10       30.18R WCI  12
WATERLOO       CLEAR     21  16  81 N10       30.18R WCI  10
$$

IAZ064-065-067-068-078-271100-
   EAST CENTRAL IOWA

CITY           SKY/WX    TMP DP  RH WIND       PRES   REMARKS
DAVENPORT      CLOUDY    27  22  81 N7        30.13R WCI  19
IOWA CITY      CLEAR     26  19  74 NW6       30.16R WCI  19
MT. PLEASANT * CLOUDY    30  21  69 NW10      30.14S WCI  21
MUSCATINE *    CLOUDY    30  23  74 N7        30.15R WCI  23
QUAD CITIES    CLOUDY    31  19  61 N6        30.12R WCI  25
$$

IAZ062-063-075>077-085>089-095>099-271100-
   SOUTHEAST IOWA

CITY           SKY/WX    TMP DP  RH WIND       PRES   REMARKS
BURLINGTON     CLOUDY    30  22  72 N9        30.12S WCI  22
FAIRFIELD *    CLOUDY    30  21  69 NW10      30.15R WCI  21
FORT MADISON * CLOUDY    28  21  74 N8        30.13S WCI  20
KEOKUK *       CLOUDY    30  21  69 N7        30.13R WCI  23
OSKALOOSA *    MOCLDY    28  21  74 N9        30.17R WCI  20
CENTERVILLE *  CLOUDY    32  21  64 N9        30.16S WCI  24
OTTUMWA        CLOUDY    29  21  72 NW10      30.15S WCI  20
WASHINGTON *   CLOUDY    30  25  80 NW9       30.15R WCI  22
$$

ABBREVIATIONS USED IN REMARKS
   TC - TEMPERATURES IN CELSIUS
  WCI - WIND CHILL INDEX
   HX - HEAT INDEX
  VSB - VISIBILITY
$$




USA.gov is the U.S. government's official web portal to all federal, state and local government web resources and services.